Погода в Консепсьоне

Чили     36°48′30″S   73°01′52″W
темп.,
°C
ветер,
м/с
пор.,
м/с
влажн.,
%
обл.,
%
осадки,
мм/ч
давл.,
гПа
погр.,
м
18 мая, вт
вт1823:00+12в2257100 0.0 101412
02:00+11вюв2258100 0.0 101319
05:00+11всв1266100 0.0 101241
08:00+10св2477100 0.0 1013121
11:00+13с3980100 0.0 1014470
14:00+14с51079100 0.0 1012550
17:00+14с61381100 0.1 1012751
20:00+13с61487100 0.2 1013774
19 мая, ср
ср1923:00+14ссв61478100 0.0 1012730
02:00+14с61477100 0.1 1012754
05:00+13ссв81691100 4.0 1011984
08:00+13ссв81592100 10.3 1012812
11:00+13ссв81790100 11.9 10131050
14:00+13с8138751 14.4 1014789
17:00+13ссз598643 1.4 1015463
20:00+12сз149499 2.6 1016352
20 мая, чт
чт2023:00+11сз2694100 2.8 1016511
02:00+11св2387100 4.1 1016140
05:00+11сз2483100 0.1 1016178
08:00+11зсз138099 0.2 1017167
11:00+12сз137365 0.1 1018422
14:00+13сз24636 0.1 1018736
17:00+12с23695 0.0 1018209
20:00+10св23781 0.0 1020169
21 мая, пт
пт2123:00+9св23795 0.0 1021118
02:00+9ссв248130 0.1 1021233
05:00+9всв2382100 0.1 1021120
08:00+8всв23825 0.5 1023141
11:00+11с36765 0.4 1024509
14:00+12ссз46715 0.7 1023700
17:00+11с36799 0.2 1023524
20:00+11ссв368266 0.5 1024343
22 мая, сб
сб2223:00+10ссв368899 0.4 1024302
02:00+10ссв248871 1.1 1023229
05:00+9св23895 0.3 1023139
08:00+8вюв22885 0.3 102465
11:00+12вюв23765 0.0 1024335
14:00+14зсз116630 0.0 1023528
17:00+13зюз237431 0.0 102387
20:00+10ююв22830 0.0 102464